Theta_e
294 293 292 291 291 290 290 290 290 290 289 289 288 288 288 288 287 287 287 287 287 287 287 287 287 286 286 286 286 286 285 285 285 285 285 285 285 285 285 285 285 285 285 285 285 285 285 285 285 285 285 285 285 285 285 285 285 285 285 285 285 285 286 286 286 287 288 288 288 288 288 289 289 289 289 289 289 289 289 289 289 290 290 290 290 291
292 292 291 290 290 290 290 290 290 289 289 288 288 287 287 287 287 287 287 287 287 287 287 287 287 286 286 286 285 285 285 285 285 285 285 285 285 285 285 285 285 285 285 285 285 285 285 285 285 285 285 285 285 285 285 285 285 285 284 285 285 285 286 286 286 287 287 288 288 288 288 289 289 289 289 289 289 289 289 289 290 290 290 290 291 291
291 291 290 290 289 289 290 289 289 289 288 288 287 287 287 287 287 287 287 287 287 287 287 287 286 286 286 285 285 285 285 285 285 285 285 285 285 285 285 285 285 285 285 285 285 285 285 285 285 285 285 285 285 285 285 285 285 285 285 285 285 285 286 286 287 287 287 287 288 288 288 288 289 289 289 289 289 289 289 289 290 290 290 291 291 291
291 290 289 289 289 289 289 289 289 288 288 288 287 287 287 287 287 287 287 287 287 287 286 286 286 286 285 285 285 285 285 285 285 285 285 285 285 285 285 285 285 285 285 285 285 285 285 285 285 285 285 285 285 285 285 285 285 285 285 285 286 286 286 286 287 287 287 288 288 288 288 288 289 289 289 289 289 289 289 289 290 290 290 291 291 291
290 290 289 289 289 289 288 288 288 288 288 287 287 287 287 287 287 287 287 287 287 287 286 286 286 285 285 285 285 285 285 285 285 285 285 285 285 285 285 285 285 285 285 285 285 285 285 285 285 285 285 285 285 285 285 285 285 285 285 286 286 287 287 287 287 287 288 288 288 288 288 289 289 289 289 289 289 289 289 289 290 290 290 290 290 291
290 290 289 289 288 288 288 288 288 288 287 287 287 287 288 287 287 286 286 286 286 286 286 286 286 285 285 285 285 285 285 285 285 285 285 285 285 285 285 285 285 285 285 285 285 285 285 285 285 285 285 285 285 285 285 286 286 286 286 286 287 287 287 287 288 288 288 288 288 288 288 289 289 289 289 289 289 289 289 289 289 290 290 290 290 291
289 289 289 289 288 288 288 288 287 287 287 287 287 287 287 287 287 286 286 286 285 285 285 285 285 285 285 285 285 285 285 285 285 285 285 285 285 285 285 285 285 285 285 285 285 285 285 285 285 285 285 285 285 286 286 286 286 286 287 287 287 287 288 288 288 288 288 288 288 288 288 289 289 289 289 289 289 289 289 289 289 290 290 290 290 290
289 288 288 288 288 288 287 287 287 287 287 287 287 287 287 286 286 286 286 285 285 285 285 285 285 285 285 285 285 285 285 285 285 285 285 285 285 285 285 285 285 285 285 285 285 285 285 285 285 285 286 286 286 286 286 286 287 287 287 288 288 288 288 288 288 288 288 288 288 289 289 289 289 289 289 289 289 289 289 289 289 289 289 289 290 290
289 288 288 288 288 288 287 287 287 287 287 287 287 287 286 286 286 286 286 285 285 285 285 285 285 285 285 285 285 285 285 285 285 285 285 285 285 285 285 285 285 285 286 286 286 286 286 286 286 286 286 286 286 287 287 287 287 288 288 288 288 288 288 288 288 288 289 289 289 289 289 289 289 289 289 289 289 289 289 289 289 289 289 289 289 290
288 288 288 287 287 287 287 287 287 287 287 287 286 286 286 286 285 285 285 285 285 285 285 285 285 285 285 285 285 285 285 285 285 285 285 285 285 285 285 285 285 286 286 286 286 286 286 286 286 286 286 286 287 287 287 287 288 288 288 288 288 288 288 289 289 289 289 289 289 289 289 289 289 289 289 289 289 289 289 289 289 289 289 289 289 289
288 288 288 287 287 287 287 287 287 287 287 286 286 286 286 286 285 285 285 284 284 284 284 285 285 285 285 285 285 285 285 285 285 285 285 285 285 285 285 285 286 286 286 286 286 286 286 286 286 286 286 287 287 287 287 288 288 288 289 289 289 289 289 289 289 289 289 289 289 289 289 289 289 289 289 289 289 289 289 288 288 288 288 288 288 288
288 288 287 287 287 287 286 286 286 287 287 286 286 285 285 285 285 285 284 284 284 284 284 284 285 285 285 284 284 284 285 285 285 285 285 285 285 285 285 286 286 286 286 286 286 286 286 286 286 287 287 287 287 288 288 288 288 289 289 289 289 289 289 289 289 289 290 290 290 289 289 289 289 289 289 288 288 288 288 288 288 288 288 288 288 288
288 287 287 287 286 286 286 286 286 286 286 286 285 285 285 285 284 284 284 284 284 284 284 285 285 285 284 284 284 284 284 285 285 285 285 285 285 285 286 286 286 286 286 287 287 287 287 287 287 287 287 287 288 288 288 288 289 289 289 289 289 290 290 290 290 290 290 290 290 289 289 289 289 289 288 288 288 288 288 288 288 288 288 288 288 288
287 287 286 286 286 286 286 286 286 286 286 285 285 285 285 285 284 284 284 284 284 284 284 285 285 285 284 284 284 284 284 285 285 285 285 285 285 285 286 286 286 286 286 287 287 287 287 287 287 287 287 288 288 288 288 289 289 289 289 290 290 290 290 290 290 290 290 290 289 289 289 289 289 288 288 288 288 288 287 287 288 288 288 287 287 288
287 287 286 286 285 285 286 286 286 286 286 285 285 285 285 285 284 284 284 284 284 284 284 284 285 285 285 284 284 284 284 284 285 285 286 286 286 285 286 286 286 286 286 287 287 287 287 287 287 287 288 288 288 288 289 289 289 289 290 290 290 290 290 290 290 290 289 289 289 289 289 289 288 288 288 288 287 287 287 287 287 287 287 287 287 287
287 286 286 285 285 285 286 286 286 286 285 285 285 285 285 284 284 284 284 284 284 284 284 284 284 284 284 284 284 284 284 284 285 285 286 286 286 286 286 286 286 286 287 287 287 287 287 287 287 287 288 288 288 288 289 289 289 290 290 290 290 290 290 290 289 289 289 289 289 289 288 288 288 288 288 288 287 287 287 287 287 287 287 287 287 287
286 286 286 285 285 286 286 286 286 285 285 285 285 285 285 284 284 284 284 284 284 284 284 284 284 284 284 284 284 284 284 284 284 285 286 286 286 286 286 286 286 286 287 287 287 287 287 287 287 288 288 288 288 289 289 289 290 290 290 290 290 290 290 289 289 289 289 289 288 288 288 288 288 288 288 287 287 287 287 287 287 287 287 287 287 287
286 286 285 285 285 286 286 286 285 285 285 285 285 284 284 284 283 283 284 284 284 284 284 284 284 284 284 284 284 284 284 284 284 285 285 286 286 286 285 285 286 286 286 287 287 287 287 287 287 288 288 288 288 289 289 289 290 290 290 290 290 290 289 289 289 289 289 289 288 288 288 288 288 288 288 287 287 287 287 287 287 286 286 287 287 287
286 285 285 285 286 286 286 285 285 285 285 285 285 284 284 283 283 283 283 284 284 284 284 284 284 284 284 284 284 284 284 284 284 284 285 285 285 285 285 285 286 286 287 287 287 287 287 288 288 288 288 288 289 289 289 290 290 290 290 290 290 289 289 289 289 289 289 288 288 288 288 288 288 288 287 287 287 287 287 287 287 286 286 286 287 287
286 285 285 286 286 286 285 285 285 285 285 285 284 284 284 283 283 283 283 283 284 284 284 284 283 284 284 284 284 284 284 284 284 284 284 285 285 285 285 285 286 286 287 287 287 287 288 288 288 288 288 288 289 289 290 290 290 290 290 290 289 289 289 289 289 289 288 288 288 288 288 288 288 287 287 287 287 287 287 287 287 286 286 286 286 287
286 285 285 285 286 286 286 286 285 285 284 284 284 284 283 283 283 283 283 284 284 284 284 283 283 283 283 284 284 284 283 283 283 283 284 285 285 285 285 285 286 286 287 287 287 287 288 288 288 288 288 289 289 289 290 290 290 290 290 289 289 289 289 289 289 288 288 288 288 288 288 288 288 287 287 287 287 287 287 287 287 286 286 286 286 286
286 285 285 285 286 286 286 286 285 284 284 284 284 284 283 283 283 283 283 284 284 284 283 283 283 284 284 283 283 283 283 283 283 283 283 284 284 285 285 285 286 286 287 287 288 288 288 288 288 288 289 289 289 290 290 290 290 289 289 289 289 289 289 289 288 288 288 288 288 288 288 287 287 287 287 287 287 287 287 287 287 286 286 286 286 286
285 285 285 285 285 286 286 285 285 284 284 284 284 284 283 283 283 283 283 283 283 283 283 284 284 284 283 283 283 283 283 283 283 283 283 283 284 285 285 285 285 286 287 287 288 288 289 289 289 289 289 289 289 289 290 289 289 289 289 289 289 289 289 288 288 288 288 288 288 288 288 287 287 287 287 287 287 287 287 287 286 286 286 286 286 286
285 285 284 285 285 285 285 285 284 284 284 284 284 283 283 283 283 283 283 284 284 284 283 284 283 283 283 283 283 283 283 283 283 283 283 283 283 284 285 285 285 286 287 288 288 289 289 289 289 289 289 289 289 289 289 289 289 289 289 289 289 289 288 288 288 288 288 288 288 288 287 287 287 287 287 287 287 286 286 286 286 286 286 286 286 286
284 284 284 284 284 284 284 284 284 284 284 284 283 283 283 283 283 284 284 284 283 283 283 283 283 283 283 283 283 283 283 283 283 283 283 283 283 284 285 285 285 286 287 288 289 289 289 289 289 289 289 289 289 289 289 289 289 289 289 289 289 288 288 288 288 288 288 288 288 288 287 287 287 287 287 287 286 286 286 286 286 286 286 286 286 286
284 284 284 284 284 284 284 284 284 283 283 283 283 283 283 283 284 284 284 283 283 283 283 283 283 283 283 283 283 283 283 283 283 283 283 283 283 284 284 285 285 286 287 288 289 289 289 290 290 290 289 289 289 289 289 289 289 289 289 289 289 288 288 288 288 288 288 288 288 288 287 287 287 287 287 286 286 286 286 286 286 286 286 286 286 286
283 283 283 283 284 284 284 283 283 283 283 283 283 283 283 283 284 284 284 284 284 283 283 283 282 282 283 283 283 283 283 283 283 283 283 283 283 283 284 284 285 286 288 289 289 289 289 289 290 290 290 290 289 289 289 289 289 289 289 289 289 288 288 288 288 288 288 288 288 288 287 287 287 287 287 286 286 286 286 286 286 286 286 286 286 286
283 283 283 283 283 283 283 283 283 283 283 283 283 283 283 283 284 284 284 284 283 283 283 282 282 282 282 282 282 283 283 283 283 283 283 283 283 283 284 284 286 287 288 289 289 289 289 289 289 289 289 290 290 290 289 289 289 289 289 289 289 289 289 288 288 288 288 288 288 287 287 287 287 286 286 286 286 285 285 285 285 285 285 286 286 286
283 283 283 283 283 283 283 283 283 283 283 283 283 283 283 284 284 284 283 283 283 283 283 282 282 282 282 282 282 283 283 283 283 283 283 283 283 283 284 285 286 286 288 288 290 290 290 289 289 289 289 290 290 290 290 290 289 289 289 289 289 289 289 289 288 288 288 288 287 287 286 286 286 286 285 285 285 285 285 285 285 285 285 285 285 286
283 283 283 283 283 283 283 283 283 283 283 283 283 283 283 283 283 283 283 283 283 283 283 282 282 282 282 282 282 282 283 283 283 283 283 283 283 283 284 285 286 286 287 287 288 289 290 290 289 289 289 290 290 290 290 290 289 289 289 289 289 289 289 289 288 288 288 287 287 286 285 285 285 285 284 284 284 284 284 284 284 284 285 285 285 285
283 283 283 283 283 283 283 283 283 283 283 283 283 283 283 283 283 283 283 283 283 283 282 282 282 282 282 282 282 282 282 282 282 283 283 283 283 284 284 285 286 286 286 285 285 286 288 290 290 290 290 290 290 290 290 289 289 289 289 289 289 289 288 288 288 287 287 286 285 285 284 284 284 284 284 283 283 283 284 284 284 284 284 284 285 285
283 283 283 283 283 283 283 283 283 283 283 283 283 283 283 283 283 283 283 283 283 283 282 282 282 282 282 282 282 282 282 282 282 282 283 283 283 284 284 285 286 287 286 285 284 284 284 287 289 290 290 290 290 290 289 289 289 288 288 288 288 288 287 287 286 286 285 285 284 284 284 284 284 283 283 283 283 283 283 283 283 283 284 284 284 284
284 283 283 283 283 283 283 283 283 283 283 283 283 283 283 283 283 283 283 283 283 282 282 282 282 282 282 283 283 282 282 282 282 282 282 283 283 284 285 285 286 287 287 286 285 284 284 285 287 289 290 290 289 289 289 288 288 288 287 287 287 287 286 285 285 284 284 284 284 284 284 284 284 284 283 283 283 283 283 283 283 283 283 283 283 284
284 283 283 283 283 283 283 283 283 283 283 283 283 283 283 283 283 283 283 283 282 282 282 282 282 282 282 283 283 283 283 282 282 282 282 283 283 284 285 286 286 286 287 287 286 286 285 285 286 287 288 289 289 289 288 288 287 287 287 286 286 285 284 284 284 283 283 283 283 283 283 283 284 284 284 284 284 283 283 283 283 283 283 283 283 283
284 283 283 283 283 283 283 283 283 283 283 283 283 283 283 283 283 283 283 283 282 282 282 282 282 283 283 283 283 283 283 283 282 282 283 283 283 284 285 285 286 286 286 286 286 286 286 287 287 287 287 288 288 288 287 287 286 286 286 285 284 284 283 283 283 283 283 283 283 283 283 283 283 283 284 284 284 284 284 283 283 283 283 283 283 283
284 283 283 283 283 283 283 283 283 283 283 283 283 283 283 283 283 283 283 283 282 283 283 283 283 283 283 283 283 283 283 283 283 283 283 283 284 284 285 286 286 286 286 286 286 286 285 286 287 286 286 285 286 286 286 286 286 285 285 284 284 283 283 283 283 283 283 283 283 283 283 283 283 283 283 284 284 284 284 284 283 283 283 283 283 283
283 283 283 283 283 283 283 283 283 283 283 283 283 283 283 283 283 283 283 283 283 283 283 283 283 283 283 283 283 283 283 283 283 283 283 283 284 284 285 286 286 286 286 285 285 286 285 285 285 286 285 284 284 284 285 285 285 285 284 283 283 283 283 283 283 283 283 283 283 283 283 283 283 283 283 283 284 284 284 284 284 283 283 283 283 283
283 283 283 283 283 283 283 283 283 283 283 283 283 283 283 283 283 283 283 283 283 283 283 283 283 283 283 283 283 283 283 282 283 283 283 283 284 284 285 285 286 286 286 285 285 285 285 284 284 284 284 284 284 284 284 284 284 283 283 283 283 283 283 283 283 283 283 283 283 283 282 282 282 282 282 283 283 283 284 284 284 284 284 283 283 283
283 283 283 283 283 283 283 283 283 283 283 283 283 283 283 283 282 282 283 283 283 283 283 283 283 283 283 283 283 283 283 282 282 283 283 283 284 284 284 285 285 285 285 285 285 284 284 283 283 282 283 283 283 283 283 283 282 282 282 283 283 283 283 283 283 282 282 282 282 282 282 282 282 282 282 282 282 282 283 283 283 283 283 283 283 283
283 283 283 283 283 283 283 283 283 283 283 283 283 282 282 282 282 283 283 283 283 283 283 283 283 283 283 283 283 283 283 283 283 283 283 283 283 283 284 284 284 284 284 284 284 284 283 282 282 282 282 282 282 282 282 282 282 282 282 282 282 283 283 283 283 282 282 282 282 282 282 282 282 282 282 282 282 282 282 282 282 283 282 282 282 282
283 283 283 283 283 283 283 282 282 282 282 282 282 282 282 282 282 283 283 283 283 283 283 283 283 283 283 283 283 283 283 283 283 283 283 283 283 283 283 283 283 283 283 283 283 283 282 282 282 282 282 281 281 281 282 282 282 282 282 282 282 282 283 283 283 282 282 282 282 282 282 282 282 282 282 282 282 282 282 281 282 282 282 281 281 281
283 283 283 283 282 282 282 282 282 282 282 282 282 282 282 282 282 283 283 283 283 283 283 283 283 283 283 283 283 283 283 283 283 283 283 283 283 283 283 283 283 283 283 283 283 282 282 282 281 281 281 281 281 281 282 282 282 282 282 282 282 282 282 283 283 282 282 282 282 281 281 281 281 282 282 282 282 282 282 281 281 281 281 281 281 281
283 283 283 282 282 282 282 282 282 282 282 282 282 282 282 282 282 282 283 283 283 283 283 283 283 283 283 283 283 283 283 283 283 283 283 283 283 283 283 283 283 283 282 282 282 283 282 282 281 281 281 281 281 281 282 282 282 282 282 282 282 282 282 282 282 282 282 281 281 281 281 281 281 282 282 282 282 281 281 281 281 281 281 281 281 281
283 283 282 282 282 282 282 282 282 282 282 281 282 282 282 282 282 282 282 283 283 283 283 283 283 283 283 283 283 283 283 283 283 283 283 283 283 283 283 283 283 283 282 282 282 282 282 282 282 282 282 281 281 281 282 282 282 282 282 282 282 282 282 282 282 281 281 281 281 281 281 281 281 282 282 282 282 281 281 281 281 281 281 281 281 280
282 282 282 282 282 282 282 282 281 281 281 281 282 282 282 282 282 282 282 282 283 283 283 283 283 283 283 283 283 283 283 283 283 283 283 283 283 283 283 283 283 283 282 282 282 282 282 282 282 282 282 282 282 282 282 282 282 282 282 282 281 281 281 281 281 281 281 281 281 281 281 281 281 281 281 281 281 281 281 281 281 281 281 281 281 280
282 282 282 282 282 281 281 281 281 281 281 281 282 282 282 282 282 282 282 282 282 282 282 283 283 283 283 283 283 283 283 283 283 283 283 283 283 283 283 283 283 283 282 282 282 282 282 282 282 282 282 282 282 282 282 281 281 281 281 281 281 281 281 281 281 281 281 280 281 281 281 281 281 280 280 280 280 280 281 281 281 281 281 281 280 280
282 282 282 281 281 281 281 281 281 281 281 281 281 281 281 282 282 282 282 282 282 282 282 282 282 283 283 282 282 283 283 283 283 283 283 283 283 283 283 283 283 283 283 282 282 282 282 282 282 282 282 282 282 282 281 281 281 281 281 281 281 281 281 281 281 281 281 280 280 280 281 281 280 280 280 280 280 280 280 281 281 281 281 280 280 280
282 281 281 281 281 281 281 281 281 281 281 281 281 281 281 281 281 282 282 282 282 282 282 282 282 282 282 282 282 282 282 283 283 283 283 283 283 283 283 283 283 283 283 283 283 282 282 282 282 282 282 281 281 281 281 281 281 281 281 281 280 280 280 281 281 281 281 280 280 280 280 280 279 279 280 280 280 280 280 280 281 281 281 280 280 280
281 281 281 281 281 281 281 281 281 281 281 281 281 281 281 281 281 281 282 282 282 282 282 282 282 282 282 282 282 282 282 282 282 283 283 283 283 283 283 283 283 283 283 283 283 283 282 282 282 282 281 281 281 281 281 281 281 280 280 280 280 280 280 280 280 280 280 280 280 280 280 279 279 279 279 279 279 279 280 280 280 281 281 281 280 280
281 281 281 281 281 281 281 281 281 281 281 281 281 281 281 281 281 281 281 281 281 281 281 281 281 281 281 282 282 282 282 282 282 282 282 282 282 282 283 283 283 283 283 283 283 283 282 282 282 282 281 281 281 281 281 281 281 280 280 280 280 280 280 280 279 279 279 279 279 279 279 279 279 279 278 278 279 279 279 280 280 281 281 281 281 281
281 281 281 281 281 281 281 281 281 281 281 281 281 281 281 281 281 281 281 281 281 281 281 281 281 281 281 281 281 281 281 282 282 282 282 282 282 282 282 282 282 282 282 283 283 282 282 282 282 282 282 281 281 281 281 281 281 280 280 280 280 280 279 279 279 279 279 278 278 278 278 278 278 278 278 278 278 279 279 280 280 281 281 281 281 281
Wind_Speed
19 19 20 21 20 19 18 19 21 22 22 22 23 24 25 25 25 25 25 24 23 22 21 21 20 19 18 18 18 18 18 18 19 19 20 20 21 21 22 22 23 23 24 24 25 25 25 25 24 24 23 23 22 21 21 20 20 20 20 19 18 17 16 17 18 18 19 19 19 19 20 20 20 20 21 21 22 22 22 22 23 23 23 23 23 24
19 20 20 20 20 19 18 19 20 22 22 23 23 24 25 25 25 25 24 23 21 20 19 18 18 17 16 16 16 17 17 18 19 19 20 21 21 22 23 23 24 24 25 25 25 25 25 24 24 23 23 22 21 20 19 18 18 18 18 18 17 16 16 17 18 18 19 19 20 20 20 21 21 21 21 22 22 22 23 23 23 23 24 24 24 24
19 19 19 20 20 19 19 20 21 22 22 23 23 24 24 24 24 24 23 21 19 18 17 16 16 15 15 15 16 16 17 18 19 20 21 22 23 23 24 24 24 25 25 25 25 25 24 23 23 22 21 20 19 18 17 17 17 17 17 17 17 16 17 18 18 18 19 19 20 20 21 21 21 22 22 22 23 23 23 23 23 23 23 24 24 25
18 18 19 20 19 19 19 21 22 23 23 23 23 24 24 23 23 22 20 19 17 16 15 15 15 15 15 15 16 16 17 19 20 21 22 23 23 24 24 24 25 25 25 24 24 23 22 21 20 19 18 17 16 16 15 15 16 16 17 16 16 16 17 18 18 19 19 20 20 20 21 21 22 22 22 22 23 23 23 23 23 23 23 24 24 24
18 19 19 19 19 19 20 21 22 23 23 23 23 23 23 23 22 20 18 16 15 14 13 13 14 15 16 17 18 18 19 20 21 22 22 23 24 24 24 24 24 24 24 23 22 21 20 19 18 17 16 15 15 14 14 15 15 16 16 15 15 15 17 18 19 19 20 20 20 20 21 21 21 22 22 22 23 23 23 23 23 23 23 24 24 24
17 19 19 19 19 19 20 21 22 24 24 24 23 22 22 22 20 18 17 15 14 13 12 12 13 15 17 19 20 20 21 21 22 22 23 23 23 24 24 24 23 23 22 21 20 19 18 16 15 14 14 14 13 14 14 14 15 15 15 15 14 15 15 17 18 19 20 20 21 21 21 21 21 22 22 22 22 23 23 23 24 24 24 24 24 25
17 18 19 19 20 20 20 20 22 23 24 24 23 21 21 20 19 17 15 15 15 14 13 13 13 14 17 19 21 22 23 23 23 23 23 23 23 23 23 23 22 22 21 20 19 17 16 15 14 13 13 13 13 13 14 14 15 15 15 14 14 14 15 16 18 19 20 21 21 21 22 22 22 22 23 23 23 23 23 24 24 24 24 25 25 25
16 17 19 19 20 20 19 19 21 23 23 23 22 20 20 19 18 15 13 13 14 15 16 16 16 16 17 19 21 23 24 24 24 23 23 22 22 22 22 21 21 20 19 18 17 16 15 14 13 13 13 13 13 13 13 14 15 15 14 14 14 15 15 17 18 19 20 21 21 21 22 22 22 23 23 23 23 23 24 24 25 25 25 25 25 26
16 17 18 19 19 19 19 19 20 21 22 21 20 19 19 19 18 15 13 13 14 15 17 18 20 20 19 20 21 22 23 24 23 23 22 21 21 21 21 21 20 19 18 17 16 15 14 14 13 13 13 13 13 13 14 14 15 15 15 15 15 16 17 18 18 19 19 19 20 20 21 22 22 23 23 24 24 24 24 24 25 25 25 26 26 26
17 17 18 19 20 19 19 19 19 20 20 19 17 17 17 18 18 17 15 14 15 15 16 18 21 22 23 22 22 22 23 23 22 21 20 19 19 19 19 20 19 19 17 16 16 15 14 14 13 13 13 13 13 13 14 15 15 15 15 15 16 16 17 18 18 18 18 18 19 19 20 21 22 23 24 24 24 25 25 25 25 25 26 26 26 26
18 19 19 19 20 20 19 18 19 19 19 18 16 16 16 16 17 17 17 17 17 17 17 18 20 23 24 25 25 24 24 24 23 21 19 18 17 17 18 18 18 18 17 17 16 15 14 14 13 13 13 13 13 14 14 15 15 16 16 16 16 16 17 17 17 18 18 18 19 19 20 21 22 23 24 25 26 26 26 26 26 25 26 26 26 26
18 19 20 20 19 19 19 18 18 18 18 18 17 17 16 15 15 15 16 17 18 19 19 20 21 22 23 25 26 26 26 25 24 22 20 18 17 17 17 17 18 18 17 17 16 16 15 14 14 13 13 13 14 14 15 15 16 16 16 16 16 16 16 17 17 17 18 19 19 20 21 22 23 24 25 25 26 27 27 26 26 25 25 25 25 26
19 19 19 19 18 17 18 17 16 16 17 17 17 17 16 15 15 14 15 16 18 19 20 21 22 22 22 23 25 27 27 26 24 22 20 19 18 18 18 18 18 18 18 18 17 16 16 15 14 14 14 14 14 15 15 15 16 16 16 16 16 16 16 17 17 18 18 19 20 21 21 22 23 24 25 26 26 27 27 27 26 26 25 25 25 25
19 19 18 16 16 16 16 16 15 15 15 17 16 15 15 15 15 15 16 17 18 19 20 21 22 23 23 23 24 26 27 26 24 21 19 18 18 18 19 19 19 19 19 18 18 17 16 16 15 15 15 15 15 15 16 16 16 16 16 16 16 16 16 17 18 18 19 20 21 22 22 23 24 24 25 26 26 26 26 26 26 26 25 25 25 24
18 18 16 14 14 14 15 15 15 14 15 15 15 15 14 14 14 15 16 18 19 21 22 23 24 24 23 23 25 27 27 26 24 22 19 17 17 18 19 20 20 19 19 18 18 17 17 16 16 16 16 16 16 16 16 16 16 16 16 16 16 16 17 17 18 19 20 21 22 23 23 24 24 25 25 25 26 26 25 25 26 26 25 25 24 24
18 16 14 13 13 13 14 14 14 14 14 15 15 15 14 14 15 16 17 18 20 22 23 24 24 24 24 23 25 26 26 26 24 23 21 18 17 18 20 20 21 20 19 18 18 18 18 17 17 17 17 17 17 17 17 17 16 16 16 16 16 17 17 18 19 20 21 22 23 24 24 25 25 25 25 25 25 25 25 25 26 26 25 25 24 23
17 16 14 12 12 12 13 13 13 12 14 15 15 14 13 14 15 16 17 19 20 22 22 23 23 23 23 24 25 25 26 26 25 23 22 20 19 19 21 21 22 22 20 18 18 18 18 17 17 17 17 17 17 17 17 17 16 16 16 16 16 17 18 19 20 20 21 22 23 24 25 25 26 26 26 26 25 25 25 25 25 25 25 25 24 23
16 15 13 12 11 12 13 12 12 12 13 14 14 14 13 13 14 15 17 18 19 20 21 21 21 21 22 24 25 26 26 26 26 25 24 22 20 20 21 21 22 22 21 19 18 18 18 17 17 17 17 18 18 18 17 17 16 16 16 17 17 18 19 19 20 21 21 22 23 24 25 26 26 27 27 27 26 26 25 25 25 25 25 25 24 23
14 13 12 11 12 12 12 11 11 12 14 14 14 14 14 13 13 14 16 18 19 20 20 20 21 21 22 24 25 26 26 26 26 26 26 24 22 20 21 21 22 22 21 20 19 18 17 17 17 17 17 18 18 18 17 17 16 16 17 17 18 19 19 20 20 21 22 22 23 24 25 25 26 27 27 28 27 27 26 25 25 25 25 25 24 24
12 11 10 11 13 13 12 11 11 12 14 14 14 13 13 13 13 14 16 17 19 21 22 22 21 22 23 24 25 25 26 26 27 27 26 25 23 21 21 22 23 23 22 21 19 18 17 17 17 17 17 17 17 17 17 17 17 17 18 18 19 19 20 20 21 21 22 23 23 24 25 25 26 27 28 28 28 28 27 26 26 25 25 25 25 24
11 9 10 11 13 13 11 10 10 11 13 13 13 13 12 12 13 14 16 17 19 21 22 23 23 23 23 24 25 26 26 26 27 28 27 26 23 22 21 23 24 24 23 22 20 17 16 16 16 17 17 17 17 17 17 17 17 18 18 19 19 20 20 20 21 21 22 23 23 24 25 25 26 27 27 28 29 29 28 27 27 26 25 25 25 24
10 8 9 10 12 11 8 8 9 10 11 11 12 13 13 13 14 15 16 18 20 22 23 23 23 24 24 25 25 25 26 26 26 27 27 25 23 22 23 24 25 25 24 24 21 18 16 15 15 15 16 16 16 16 17 17 18 18 19 19 20 20 20 20 21 21 22 23 24 24 25 26 26 27 27 28 29 29 29 28 27 27 26 25 25 24
9 8 8 9 9 7 5 6 8 9 9 10 11 12 12 13 15 16 17 19 21 22 23 24 24 24 24 23 22 22 23 24 26 26 25 24 24 24 25 26 26 25 26 25 23 20 16 14 14 14 14 15 15 16 16 17 18 18 19 19 20 20 20 20 21 22 22 23 24 24 25 26 26 27 27 28 28 29 29 28 28 27 26 25 24 24
9 7 6 4 3 2 2 4 7 8 9 10 10 11 11 12 14 16 18 19 21 22 24 25 24 23 21 20 19 18 19 23 25 25 24 24 24 26 26 27 27 27 27 26 24 21 17 14 12 13 13 14 15 15 16 17 17 18 19 19 19 20 20 21 21 22 22 23 24 24 25 26 26 27 27 27 28 28 28 28 28 27 26 25 24 23
7 5 3 1 3 4 2 2 6 8 10 11 10 10 10 11 13 15 17 19 21 23 24 24 23 21 20 21 21 19 19 22 24 25 25 26 27 27 25 26 27 27 28 27 25 22 18 14 12 12 13 13 14 15 16 16 17 17 18 19 19 20 20 21 21 22 23 23 24 25 25 26 26 27 27 27 27 27 28 28 27 27 26 25 24 23
5 4 3 1 3 4 4 4 6 9 10 11 10 10 11 12 13 15 17 19 21 23 25 24 23 22 23 24 23 22 20 21 23 25 27 28 28 27 26 27 28 29 29 28 26 24 20 15 13 13 14 14 15 15 15 16 16 17 18 18 19 20 21 21 22 23 23 24 24 25 25 26 26 27 27 27 27 26 26 27 27 27 26 26 25 24
6 5 3 2 2 3 4 5 7 8 9 10 10 11 12 13 14 16 18 20 22 24 25 25 24 24 25 26 25 23 19 18 21 25 28 28 28 27 26 28 29 30 30 30 28 26 23 19 17 16 16 16 16 16 16 16 17 17 18 18 19 20 21 22 22 23 24 24 25 25 26 26 27 27 27 27 26 26 26 26 26 26 26 26 25 25
7 5 3 2 2 3 4 5 6 8 9 9 10 12 13 14 15 17 19 20 22 24 25 25 24 25 26 26 26 23 18 16 20 26 28 28 27 26 26 28 30 30 31 31 29 27 25 22 21 20 20 19 18 18 17 17 18 18 19 19 20 21 22 22 23 24 25 25 26 26 26 26 26 26 26 26 26 26 25 25 25 25 26 26 25 25
7 6 4 3 3 3 4 5 7 8 9 10 11 13 14 15 16 18 20 21 23 24 25 25 25 26 27 27 27 23 17 16 21 27 28 28 27 27 28 29 29 30 31 32 30 28 26 24 22 23 23 22 21 20 19 19 20 20 21 21 22 23 23 24 25 26 26 27 27 27 27 26 26 26 26 26 26 25 25 25 24 24 25 25 25 25
8 7 5 4 3 4 5 6 7 9 10 11 12 13 14 15 17 18 20 22 23 24 25 26 26 27 27 28 27 22 17 18 23 27 28 28 27 28 29 29 29 29 30 31 31 31 30 26 24 24 25 25 24 23 22 22 23 24 24 25 25 25 26 27 28 28 28 28 28 27 27 26 26 25 25 25 25 25 25 24 24 23 23 24 24 24
9 8 6 5 4 4 5 6 8 9 10 11 12 13 14 15 17 18 20 21 23 24 26 27 27 27 27 26 23 20 19 20 24 27 28 27 28 29 29 29 29 29 28 28 28 29 30 30 28 26 27 27 26 26 26 26 26 27 28 29 29 29 30 30 31 31 30 30 29 28 27 27 26 26 26 26 26 26 25 24 23 22 22 22 23 23
9 8 6 5 4 4 5 6 7 9 10 11 11 13 14 15 17 18 20 21 22 24 25 26 27 27 27 25 22 20 21 23 24 26 27 27 27 28 28 28 29 29 28 27 25 24 25 30 31 30 29 28 28 28 28 28 29 30 31 32 32 33 33 33 33 33 32 31 30 29 29 29 28 28 27 27 26 26 25 24 22 21 20 20 21 22
8 7 6 5 4 4 5 6 7 8 9 10 11 12 14 15 17 18 20 21 22 24 25 26 26 27 27 26 25 24 23 23 24 25 26 26 27 27 27 28 28 29 28 27 27 25 25 28 31 33 32 31 31 30 30 30 30 31 32 33 34 35 35 35 35 34 33 32 32 31 31 31 31 30 29 28 27 26 25 24 21 19 18 18 19 20
7 6 5 4 4 4 5 6 7 8 9 10 11 12 14 15 17 18 19 21 22 23 24 25 25 26 26 26 25 25 24 23 23 24 24 25 25 26 27 27 28 28 28 28 28 27 27 28 30 32 33 33 33 32 32 31 31 31 32 33 34 35 35 35 35 34 34 33 32 32 32 32 32 32 31 30 29 27 25 23 21 18 17 16 16 17
6 5 4 4 4 4 5 6 7 8 9 10 11 13 14 16 17 18 20 21 22 23 23 24 24 24 24 24 24 24 23 22 22 22 23 23 24 25 26 27 27 27 28 28 28 28 29 30 30 31 33 35 35 34 32 31 31 32 32 33 33 34 34 34 34 33 33 33 32 32 31 31 32 32 32 31 30 28 26 24 21 18 16 15 14 15
6 5 5 4 4 4 5 5 6 7 9 10 12 13 15 16 17 19 20 21 22 22 22 22 23 23 23 23 22 22 22 22 22 22 22 23 23 24 25 26 26 26 27 27 28 28 30 31 31 32 32 33 34 34 34 33 32 32 33 33 33 33 33 33 33 32 32 32 31 31 31 31 31 32 32 32 31 29 26 24 21 19 17 15 14 13
6 5 5 5 4 4 5 5 7 8 10 11 12 14 15 17 18 19 20 21 21 22 22 21 21 21 22 22 22 22 22 22 22 22 22 22 23 23 24 25 25 25 25 26 27 28 29 31 32 33 32 32 32 33 34 34 34 33 33 33 33 33 33 33 32 32 31 31 31 31 31 31 31 32 32 32 31 29 27 24 22 20 17 16 14 13
5 5 5 4 4 4 5 7 8 10 11 13 14 15 16 18 19 20 20 21 21 21 21 21 20 20 20 20 20 21 21 21 21 21 21 22 22 23 23 24 24 25 25 25 26 27 28 29 30 32 32 32 32 32 33 34 34 34 34 34 34 33 32 32 32 32 31 31 31 31 31 31 31 32 32 32 31 30 28 26 23 21 19 17 16 15
5 4 4 4 5 6 7 8 10 11 13 14 15 17 18 19 20 20 20 21 21 20 20 20 20 20 19 19 19 19 19 19 20 20 20 21 21 21 22 23 23 23 24 24 25 26 26 27 28 29 30 32 32 32 32 32 33 34 35 36 35 34 33 33 32 32 31 30 30 31 31 31 32 32 32 31 31 30 29 28 25 23 21 20 19 17
4 4 4 5 6 7 9 10 11 12 14 15 16 18 19 19 20 20 20 20 20 20 20 19 19 19 19 19 18 18 19 19 19 19 19 19 20 20 21 21 22 22 23 23 24 24 25 26 26 27 28 29 31 32 32 32 32 33 34 34 34 35 35 34 32 32 31 30 30 31 31 32 32 32 31 31 30 29 29 28 26 24 23 22 21 21
4 4 5 6 7 8 10 11 12 13 14 16 17 18 19 20 20 20 20 20 20 20 19 19 19 18 18 18 19 19 19 19 19 19 19 19 19 20 20 20 21 22 22 22 23 23 24 24 25 26 26 27 29 30 32 32 32 32 32 32 32 34 35 34 32 31 31 31 31 31 31 32 32 32 32 31 30 28 27 27 26 25 23 21 20 20
5 5 6 7 8 9 10 11 12 13 15 16 17 18 19 19 20 21 21 21 21 20 20 20 19 18 18 18 19 19 20 20 20 20 20 20 20 20 20 21 21 22 22 22 22 23 23 23 24 24 25 26 27 29 31 32 33 32 31 31 32 34 35 35 33 32 31 31 32 31 32 32 33 33 32 31 30 28 27 26 25 24 22 21 20 19
6 6 7 8 9 10 11 12 13 14 15 16 16 17 18 19 20 20 21 21 21 21 21 20 20 19 19 19 19 19 20 20 21 21 21 21 21 21 21 21 22 22 22 22 22 23 23 22 22 23 23 24 25 27 29 31 32 32 31 30 30 31 31 33 34 34 32 32 31 31 32 32 33 32 32 31 30 28 27 26 25 23 22 20 19 19
6 7 8 9 10 10 11 12 13 14 15 15 16 16 17 18 19 20 20 20 21 21 21 20 20 20 19 19 20 21 21 21 21 21 21 21 21 21 21 22 22 22 22 22 22 22 22 22 21 21 22 23 24 26 28 29 31 31 30 30 29 28 29 31 33 33 33 33 32 32 32 32 32 32 32 31 30 29 28 27 25 24 22 20 20 19
6 7 8 9 10 11 12 13 14 14 15 15 15 16 17 18 19 20 20 20 20 20 21 21 21 21 21 21 21 22 22 22 22 22 22 21 21 22 22 22 23 23 22 22 21 21 21 21 21 21 21 23 24 25 26 27 28 29 29 29 29 29 30 31 31 31 32 33 33 33 33 32 32 33 33 32 30 29 28 27 26 25 23 21 20 20
7 8 9 10 11 12 13 14 14 14 15 15 15 16 17 18 19 19 20 20 20 21 21 21 22 23 23 24 24 23 23 23 23 22 22 22 22 22 23 23 24 24 24 23 23 22 21 20 20 20 22 24 25 25 25 25 26 27 29 30 31 31 32 32 32 31 32 32 33 33 33 33 33 32 32 32 31 30 29 28 27 25 24 22 21 20
9 10 11 12 13 13 14 14 15 15 15 15 16 16 17 18 19 19 20 20 20 21 21 22 22 23 24 24 25 25 25 25 24 24 23 23 23 23 24 24 25 25 26 26 26 25 24 22 21 20 21 23 25 26 26 25 26 27 29 30 31 31 32 32 32 32 32 32 32 33 33 33 32 32 32 32 32 31 30 29 27 25 23 22 21 21
10 11 12 13 13 14 14 15 15 15 15 15 16 16 17 18 19 19 20 21 21 21 22 23 23 24 24 25 25 25 25 25 25 25 25 25 25 25 26 26 27 28 28 29 29 29 28 26 23 21 21 22 23 24 26 26 27 28 29 30 30 31 32 32 33 33 33 33 33 33 32 32 31 31 32 32 32 32 31 29 28 26 24 22 22 22
11 12 13 13 14 15 15 15 16 16 16 16 16 17 17 18 19 20 20 21 22 22 23 24 24 24 25 25 25 25 25 25 26 26 26 26 27 27 28 29 29 30 31 31 32 32 32 30 27 23 21 21 22 23 25 27 28 29 29 29 29 30 31 33 33 33 33 33 33 33 32 31 30 29 30 31 31 32 32 30 29 27 25 24 23 23
12 13 13 14 15 15 15 16 16 16 16 17 17 17 18 19 19 20 20 21 22 22 23 24 24 25 25 25 26 26 26 26 26 27 27 27 28 29 30 31 32 33 34 34 35 35 34 33 30 26 23 21 21 22 24 28 30 31 30 29 29 30 31 32 33 33 33 33 33 33 32 31 30 29 28 29 30 31 32 31 30 28 27 25 24 23
12 13 14 14 15 15 16 16 16 16 17 17 17 18 18 19 20 20 21 21 22 22 23 23 24 25 25 25 26 26 26 26 27 27 28 28 29 29 30 32 33 34 35 36 37 37 36 35 32 29 25 22 22 24 26 29 31 31 31 31 31 31 32 32 33 33 33 32 32 32 31 30 29 28 28 28 29 30 31 32 31 30 28 27 26 25
Wind_Direction
318 319 322 325 328 329 328 326 327 329 330 332 333 334 335 336 336 335 334 334 335 335 335 335 336 337 339 341 342 343 343 342 341 340 339 338 336 335 333 332 331 329 328 327 327 326 326 326 326 326 326 327 327 327 328 328 329 330 332 332 333 337 343 344 343 341 338 337 337 337 336 336 335 334 333 332 331 331 331 332 332 332 332 331 330 329
320 323 326 329 332 333 331 327 327 330 332 334 334 335 335 336 336 335 336 337 338 339 339 339 339 341 344 345 346 346 346 344 342 340 338 336 334 333 332 331 330 329 329 328 329 329 329 330 330 331 331 331 332 333 334 335 336 337 336 336 337 342 346 345 343 341 338 338 337 337 336 335 335 334 333 333 332 332 332 332 333 332 331 330 330 329
323 327 329 332 334 334 332 328 328 331 334 335 335 335 336 337 337 337 338 340 342 344 345 344 344 345 347 348 348 347 345 343 340 338 337 335 333 332 331 331 330 330 330 331 331 332 333 334 335 335 336 338 339 339 340 340 340 340 339 338 339 342 343 342 341 341 339 339 338 337 336 335 334 334 333 332 332 332 332 332 332 331 331 330 328 327
327 330 332 334 336 335 332 329 329 332 335 336 336 337 338 340 341 341 342 344 348 350 350 349 348 348 349 349 348 347 344 342 340 338 336 334 333 332 332 332 332 332 333 334 335 336 337 338 339 340 341 342 343 343 343 342 342 340 339 338 339 341 341 340 339 339 339 338 338 337 336 335 334 333 332 331 331 331 331 331 331 330 330 329 327 326
327 331 333 336 337 336 333 330 331 333 336 338 338 339 340 343 345 346 347 350 355 357 356 354 352 351 351 350 348 346 344 342 340 338 336 335 334 333 333 333 334 335 336 337 338 340 341 343 344 344 345 345 345 344 343 343 341 340 338 338 340 342 342 340 338 337 336 336 336 335 334 333 333 332 331 330 330 330 330 330 330 329 329 328 326 326
328 331 334 336 337 336 335 332 332 334 337 340 341 342 343 346 349 351 352 356 1 3 3 1 357 354 352 350 348 346 345 344 342 340 337 336 335 334 334 335 336 337 339 340 342 344 345 347 347 347 347 346 344 343 343 342 341 338 337 338 341 344 344 341 338 335 334 334 333 333 332 331 331 330 329 329 329 330 330 330 329 328 327 326 326 325
330 332 335 337 337 337 337 334 333 335 339 342 345 345 346 349 353 357 358 0 3 4 4 4 1 357 353 350 348 347 347 346 344 341 339 337 336 336 336 337 338 340 341 343 345 347 349 350 350 349 348 346 345 343 343 342 340 337 335 338 341 344 344 340 337 335 334 333 333 332 331 331 330 329 329 329 329 330 330 329 328 327 326 325 325 325
334 333 334 336 337 338 339 336 335 336 340 344 347 348 347 349 356 3 6 7 6 4 2 360 359 358 355 352 350 348 348 347 345 343 341 339 337 337 337 338 340 341 343 345 347 349 351 352 351 350 348 346 345 344 343 342 339 336 336 339 342 343 343 341 338 337 336 335 334 333 332 332 331 330 329 329 329 329 329 328 327 326 325 325 324 324
336 335 334 335 337 340 341 338 336 338 342 346 349 349 348 349 355 5 14 16 13 7 2 357 355 354 354 354 352 350 349 349 348 345 342 340 338 338 338 339 341 343 345 347 349 351 352 352 351 350 348 346 345 344 344 342 339 337 338 341 344 344 344 343 342 341 340 339 337 336 335 333 332 330 329 329 329 329 328 327 326 325 324 324 324 324
337 336 336 336 337 340 343 341 339 340 345 349 351 351 352 352 356 2 10 13 13 10 5 359 354 352 352 354 355 353 351 350 349 347 344 341 340 339 339 339 341 343 345 347 349 351 352 352 350 348 347 345 344 344 344 342 340 339 340 343 345 346 345 345 345 344 343 341 339 338 336 334 332 331 329 329 328 328 328 327 326 325 324 324 323 323
337 337 338 339 340 341 343 344 343 343 347 351 353 355 358 0 1 1 3 4 5 6 4 0 356 353 353 353 354 355 353 352 351 349 346 344 342 341 341 341 342 344 345 347 349 351 351 351 349 348 346 345 344 344 344 342 341 340 342 344 345 346 345 345 344 343 341 340 338 337 335 334 332 331 330 329 329 329 328 327 326 325 325 324 324 324
339 339 340 342 343 344 345 346 346 348 350 353 356 358 1 5 6 5 2 0 1 1 360 359 357 356 354 353 353 354 354 353 352 351 349 346 345 345 345 345 345 345 346 347 349 350 350 349 349 347 346 345 345 344 344 342 341 341 343 344 345 345 345 344 343 341 340 338 337 335 334 333 333 332 331 330 330 329 328 328 327 326 325 325 324 324
341 342 344 345 345 345 346 349 351 352 353 356 358 358 357 1 5 6 3 2 1 360 358 357 357 357 356 354 353 353 354 354 354 353 351 350 349 349 351 350 349 348 347 347 347 348 348 347 347 347 346 345 345 345 344 343 343 342 343 344 345 345 344 343 342 341 339 338 337 335 335 334 333 333 333 332 330 329 328 327 327 327 326 326 325 325
343 344 347 348 346 346 347 351 355 357 357 358 359 358 358 1 3 2 1 1 360 358 357 357 358 358 358 355 353 353 353 354 354 354 354 354 353 353 354 355 353 350 347 346 345 345 345 345 345 346 346 345 345 345 345 344 343 343 344 344 344 344 344 343 342 340 339 338 337 336 336 335 335 334 334 333 332 330 328 328 327 327 327 326 326 326
343 345 348 348 348 348 349 353 357 360 359 1 2 2 0 359 359 1 1 359 358 358 357 357 358 359 360 357 355 354 353 354 355 355 357 358 357 356 357 357 355 352 348 345 342 341 341 342 342 343 344 345 345 345 344 344 344 343 344 344 344 344 343 342 341 340 339 338 337 337 337 337 337 336 336 336 334 332 330 329 328 327 327 326 326 327
343 346 350 351 352 352 353 357 0 1 359 1 4 3 356 351 354 359 1 358 358 358 358 357 356 356 357 358 357 356 354 355 355 356 357 360 360 359 1 357 355 353 350 345 341 339 338 339 339 340 342 343 343 344 343 343 343 343 343 344 344 343 342 341 340 339 339 338 337 338 338 338 338 338 338 338 337 335 333 331 329 328 327 326 327 327
345 347 351 357 358 357 358 1 3 2 358 0 2 1 356 354 356 359 0 359 357 357 356 356 353 350 349 353 357 357 356 355 355 356 357 0 1 1 3 357 354 353 352 347 342 337 335 335 335 337 338 340 341 341 341 341 341 342 342 343 342 342 341 340 339 339 338 338 338 337 337 337 338 338 338 338 338 336 335 332 330 329 327 327 327 328
345 348 353 0 3 4 7 9 3 356 355 356 358 358 359 359 359 359 359 358 356 354 353 353 351 348 344 344 351 357 358 356 355 355 357 0 2 3 2 357 352 352 353 350 343 336 333 331 331 332 334 336 337 338 338 339 339 340 341 341 341 340 340 339 339 338 338 338 337 337 337 337 336 337 337 337 337 336 335 333 331 330 328 327 326 327
343 347 356 3 8 11 16 13 0 351 351 354 355 356 357 359 360 359 358 357 355 353 351 349 348 346 344 344 349 356 360 357 355 354 355 358 1 2 359 353 350 351 354 352 345 336 331 328 327 328 330 332 334 335 336 337 338 339 339 340 340 339 339 338 338 337 337 337 337 336 336 335 335 334 334 335 335 335 335 334 332 331 329 327 327 327
344 349 358 5 14 19 19 8 354 348 350 354 355 356 356 357 358 358 357 355 354 353 352 350 347 346 346 348 351 356 359 358 355 353 353 355 358 359 355 349 348 351 353 353 347 337 330 325 324 325 327 328 330 332 334 335 336 337 338 338 338 338 337 337 337 336 336 336 335 335 334 333 333 332 332 332 333 333 333 333 332 331 330 328 328 327
348 354 1 12 21 23 13 356 345 344 349 352 353 353 355 356 356 356 354 353 353 352 352 350 349 348 349 349 351 354 356 354 351 349 351 353 355 355 352 349 349 350 351 352 348 339 330 324 321 321 323 325 328 330 332 333 334 335 335 336 336 336 336 335 335 335 334 334 333 332 332 331 331 331 331 330 331 331 331 331 331 331 331 329 329 328
351 359 10 29 33 25 3 345 339 343 350 353 353 352 353 354 354 353 352 352 352 352 351 350 350 352 354 352 350 350 350 349 346 346 348 347 347 350 352 351 350 349 348 350 349 343 333 325 320 319 321 323 326 328 330 331 332 332 332 333 334 334 334 333 333 333 332 331 331 330 330 330 329 329 329 329 329 329 329 329 329 330 330 329 329 328
358 6 20 39 43 31 354 335 335 342 351 354 354 353 353 352 351 351 351 351 351 350 350 350 353 355 355 351 347 344 342 343 345 347 347 341 343 348 353 353 350 346 345 349 350 346 338 329 321 319 320 323 325 327 328 328 328 329 329 330 331 332 332 332 331 331 330 330 329 329 328 328 328 328 328 328 328 328 327 327 328 328 329 329 329 328
7 13 21 45 73 81 344 334 336 340 347 353 356 355 352 348 346 345 346 348 349 349 349 351 353 352 349 345 343 340 336 341 345 348 346 340 340 346 352 352 347 343 344 348 350 348 343 334 325 321 321 323 325 326 326 326 326 326 327 329 330 330 331 331 330 329 329 328 327 327 327 327 327 327 328 327 327 327 327 327 327 327 327 328 328 329
11 12 12 119 165 177 200 327 332 333 340 349 354 354 350 346 343 343 345 347 348 349 349 351 350 346 344 344 345 344 340 342 345 346 345 342 343 346 350 350 345 341 342 346 349 349 348 342 334 327 325 325 325 324 323 323 323 325 326 328 329 330 330 330 329 328 327 326 326 326 326 326 326 327 327 327 327 327 327 327 327 326 326 327 328 329
8 1 347 256 201 204 224 263 301 322 337 347 351 351 349 345 343 344 347 347 347 348 350 351 348 345 345 345 346 346 344 343 343 343 343 342 342 344 348 349 346 343 343 345 348 350 351 350 344 337 332 329 326 323 321 321 322 324 326 328 329 329 330 329 328 327 326 326 325 325 325 325 325 326 326 327 327 328 327 327 327 326 326 327 328 330
0 355 348 323 254 249 263 285 307 326 340 348 350 350 347 345 344 344 346 346 346 348 350 350 347 344 345 345 346 347 347 341 338 340 342 342 341 342 344 346 346 345 344 345 347 349 351 352 350 345 338 333 328 324 322 321 322 324 325 327 328 329 329 328 328 327 326 326 325 325 325 325 325 325 326 326 327 328 329 329 328 327 326 327 328 330
4 359 350 330 308 301 311 321 331 340 348 351 351 348 345 344 344 346 346 346 346 348 350 349 346 343 342 342 344 348 348 337 332 336 342 342 341 340 341 345 346 346 345 344 344 346 348 350 349 346 341 337 333 329 326 324 323 323 324 325 326 327 327 327 327 326 326 326 326 326 326 325 325 325 326 327 328 329 330 330 329 328 327 327 328 330
9 6 358 347 336 336 342 347 350 352 354 353 350 347 344 344 345 346 346 346 346 347 348 347 345 343 342 342 345 348 347 333 331 336 341 341 340 340 342 344 345 345 345 343 343 344 346 347 346 343 340 338 336 334 331 328 326 325 325 325 326 326 326 326 325 325 326 326 327 327 327 327 327 327 327 328 329 330 331 331 331 329 327 327 327 329
10 8 5 358 352 351 353 356 356 356 354 352 348 345 343 343 344 345 345 345 345 345 345 345 344 343 342 343 344 345 342 333 333 337 340 340 339 340 343 343 343 344 344 343 342 341 342 344 343 340 338 337 337 336 334 333 331 330 329 328 327 327 327 326 326 326 326 327 328 329 329 330 330 331 331 331 331 331 331 332 331 330 328 327 327 327
8 8 7 1 355 354 356 357 357 355 352 348 344 342 341 342 343 344 344 344 344 344 343 343 342 342 342 341 339 335 332 333 335 337 339 338 337 339 341 341 342 342 342 342 340 337 335 338 340 340 338 337 336 336 335 334 334 333 333 331 331 330 329 329 329 329 330 331 333 334 335 336 336 336 336 335 334 333 332 333 332 331 328 327 326 326
8 8 6 359 352 349 352 353 353 351 347 343 340 339 339 341 342 343 343 343 342 342 341 341 340 340 340 340 335 330 329 334 336 337 338 336 336 337 339 339 340 340 340 340 337 332 328 329 334 338 337 336 335 335 335 335 335 335 334 333 332 332 332 333 333 334 336 337 339 341 342 342 342 341 340 339 337 335 334 334 333 332 329 327 325 324
9 8 5 357 349 345 346 348 347 344 340 337 336 337 338 340 341 342 342 342 341 340 339 340 339 339 339 338 336 334 335 336 336 336 336 335 334 335 337 338 339 339 339 338 337 333 328 326 329 333 334 334 334 334 335 335 335 334 333 333 333 333 334 336 337 339 340 342 343 344 344 344 343 342 342 340 339 337 336 336 335 334 331 328 325 323
11 11 6 360 352 348 345 344 340 336 332 332 333 335 337 339 341 342 341 341 340 339 339 338 338 338 337 337 337 337 339 338 336 335 335 334 333 334 336 337 338 338 338 337 336 334 331 328 329 330 331 332 333 334 335 335 334 333 332 332 333 334 335 337 339 340 342 343 343 342 342 341 340 340 340 340 340 339 338 338 338 337 334 331 326 323
9 9 9 5 1 355 348 340 332 327 327 329 332 335 337 340 341 341 341 339 339 338 338 338 338 337 337 336 336 337 338 338 336 335 334 334 333 334 335 336 336 337 336 336 335 334 332 331 330 330 329 330 332 333 334 333 332 331 332 333 334 335 336 338 340 340 341 341 340 339 338 337 336 337 338 339 340 341 341 341 341 340 337 334 330 326
10 10 9 9 5 358 347 333 324 323 327 331 334 336 338 340 341 341 340 339 338 338 338 338 338 338 337 336 335 336 337 337 336 335 335 335 334 334 334 335 336 336 336 336 335 334 333 333 332 331 330 329 329 331 332 332 332 332 334 335 336 336 338 340 340 340 339 338 336 335 335 334 333 334 335 338 340 342 343 344 344 343 340 337 335 331
19 18 15 13 7 357 343 331 328 330 334 336 338 339 340 341 341 341 340 339 339 339 340 340 340 339 338 336 336 336 337 337 337 337 337 336 336 335 335 335 336 336 336 336 335 334 333 333 332 332 331 328 326 327 329 331 333 335 336 337 337 338 339 340 341 339 337 336 334 333 332 332 331 332 334 337 340 342 345 347 347 346 344 341 339 337
31 30 23 17 5 352 343 339 339 340 342 341 341 341 342 342 342 341 341 341 341 342 343 343 343 341 339 338 337 337 337 339 339 339 338 338 337 336 336 336 336 337 336 336 336 336 334 332 330 329 329 328 327 327 330 333 335 337 338 339 339 339 339 340 339 338 336 334 333 332 331 331 331 332 333 336 339 341 343 346 349 350 347 344 342 340
40 34 23 10 359 351 347 346 346 346 345 344 343 343 343 343 342 342 343 344 345 346 346 345 344 342 341 339 339 339 340 342 342 341 340 339 338 337 337 336 336 337 337 337 337 336 334 331 329 327 326 327 328 330 333 335 337 338 338 340 340 340 339 339 338 337 336 334 332 331 331 331 332 332 332 334 336 339 341 344 347 349 348 346 342 340
34 25 13 5 359 354 352 351 350 348 347 345 344 344 344 344 344 344 345 347 348 349 349 347 346 344 342 341 342 344 345 346 346 345 344 343 341 340 339 338 338 338 338 338 337 336 335 332 330 329 328 327 328 330 334 337 339 339 339 337 336 336 337 337 337 336 335 333 331 330 330 331 332 332 332 334 335 337 339 341 343 346 347 344 340 337
24 15 9 3 360 356 354 352 350 348 347 346 346 346 346 346 346 347 348 349 350 351 350 349 348 346 346 345 347 349 350 351 350 350 349 347 346 345 344 343 343 343 343 342 340 339 337 335 333 333 332 331 331 332 334 337 340 340 338 334 332 332 334 335 335 334 333 332 332 331 331 331 332 332 333 334 336 337 339 340 340 341 342 341 337 333
14 9 5 2 359 356 354 352 351 349 349 349 350 350 349 349 349 349 350 351 351 352 352 351 350 349 350 352 353 353 354 354 354 354 353 352 351 350 350 349 349 349 349 348 345 343 341 339 337 336 335 334 333 332 334 338 340 341 338 334 333 333 333 334 334 334 332 331 332 332 332 332 332 333 335 335 337 338 340 340 340 339 338 336 334 332
7 4 2 0 358 357 355 354 353 353 353 354 353 353 352 353 353 353 353 353 352 352 352 352 351 352 355 357 358 358 358 358 358 358 357 356 356 355 355 355 355 355 354 353 350 348 346 344 341 339 338 337 334 332 332 337 340 340 338 336 333 330 328 330 332 333 332 331 331 332 333 333 334 335 335 336 336 338 339 339 339 338 338 336 334 332
6 5 4 2 1 359 359 359 358 357 356 356 356 356 356 356 357 356 356 355 354 353 353 354 355 356 359 1 1 1 2 1 1 1 0 359 359 358 358 358 358 358 358 357 355 353 351 349 347 344 342 339 337 335 336 337 337 337 336 334 332 328 324 326 329 331 332 332 333 334 335 336 336 336 336 336 336 336 337 337 338 339 339 339 336 333
13 11 10 9 6 5 4 2 0 360 360 359 359 359 359 359 359 359 358 358 357 357 357 358 360 2 3 3 3 4 3 3 3 2 2 1 0 359 359 359 359 359 359 360 359 357 355 353 351 349 347 344 341 339 338 337 335 333 331 332 331 329 328 329 331 331 331 333 334 336 338 338 337 337 336 335 335 335 335 336 337 338 339 339 337 333
22 20 17 13 10 8 6 4 3 3 4 3 3 3 2 2 1 1 360 359 360 1 1 2 4 6 7 6 5 5 5 4 3 3 2 1 0 360 359 359 359 359 359 360 0 0 360 357 354 351 349 346 344 342 340 336 332 329 329 330 331 331 332 333 334 334 334 334 335 337 339 340 339 336 334 332 332 333 334 335 336 337 338 337 336 332
27 22 17 13 11 9 7 5 5 6 7 6 6 5 4 3 2 1 0 360 1 2 3 4 6 8 8 8 7 6 4 3 2 2 1 0 360 360 359 359 358 358 358 358 359 360 1 0 358 355 350 346 342 340 339 336 332 329 328 330 331 331 331 333 335 337 337 337 337 338 340 340 338 335 333 332 331 331 332 334 336 337 337 336 333 330
25 20 15 11 10 9 7 6 7 8 9 8 7 7 6 5 3 2 2 1 1 3 4 6 7 8 8 8 8 6 4 2 2 1 360 359 359 359 358 357 357 356 357 357 357 358 359 0 360 357 352 346 340 336 334 333 331 330 330 331 331 331 331 332 336 338 339 339 339 340 340 339 336 333 332 331 329 329 330 332 335 337 337 335 332 329
22 18 13 10 9 8 8 7 8 9 9 9 8 8 7 5 4 4 3 3 3 4 6 7 7 7 7 7 6 5 4 2 1 1 360 359 359 359 358 357 356 355 355 356 356 357 358 359 359 358 353 349 342 336 331 330 331 331 332 332 332 331 331 333 336 339 340 339 340 340 339 338 336 334 331 329 327 327 328 331 334 336 337 336 334 332
18 15 11 9 8 8 8 8 9 10 10 9 8 8 7 6 5 4 4 4 4 5 6 7 8 7 6 5 4 3 3 2 1 1 360 359 359 360 359 357 356 355 355 355 355 356 356 357 358 357 354 350 344 336 331 330 332 334 334 334 333 332 332 333 336 338 338 337 337 337 338 337 336 335 332 328 326 327 328 330 332 335 337 337 337 336
15 13 10 9 8 8 8 8 9 10 10 9 8 8 7 6 5 5 4 4 5 6 6 7 8 7 6 4 3 2 2 1 1 1 0 360 0 0 359 358 358 357 356 355 355 355 355 354 354 354 354 351 345 338 335 335 336 337 335 334 334 334 334 335 336 337 336 334 333 334 334 334 334 333 331 328 326 326 326 327 330 334 338 340 339 338